Regional Weather Roundup
Issued by NWS

Home | Current Version | Previous Version | Graphics & Text | Print | Product List | Glossary On
Versions: 1 2 3 4 5 6 7 8 9 10 11 12 13 14 15 16 17 18 19 20 21 22 23 24 25 26 27
000
ASUS45 KBOU 240207
RWRCO

WEATHER ROUNDUP FOR COLORADO
NATIONAL WEATHER SERVICE DENVER/BOULDER CO
700 PM MST THU FEB 23 2017

NOTE: "FAIR" INDICATES FEW OR NO CLOUDS BELOW 12000 FEET WITH NO
SIGNIFICANT WEATHER AND/OR OBSTRUCTIONS TO VISIBILITY.

COZ001>005-013-030-031-240300-
...NORTHWEST COLORADO...

CITY           SKY/WX    TMP DP  RH WIND       PRES   REMARKS
CRAIG          CLOUDY    23  18  81 W12       29.73R WCI  12
HAYDEN         CLOUDY    21  16  79 W7        29.72R WCI  13
MEEKER         FLURRIES  25  21  85 VRB3      29.73R
MOUNT WERNER   NOT AVBL
STEAMBOAT SPGS CLOUDY    20  17  88 CALM      29.70R
WALDEN         NOT AVBL
$$

COZ006>008-011-240300-
...WEST CENTRAL VALLEYS...

CITY           SKY/WX    TMP DP  RH WIND       PRES   REMARKS
GRAND JUNCTION FAIR      30  23  75 N9        29.78S WCI  22
MONTROSE       FAIR      30   5  34 VRB3      29.78R
EAGLE          MOCLDY    25  12  58 W6        29.75R WCI  18
RIFLE          CLOUDY    30  19  63 N9        29.76R WCI  22
DELTA          FAIR      36   7  29 W8        29.77R
NUCLA          FAIR      30   7  37 CALM      29.81R
$$

COZ017>023-064>068-240300-
...SOUTHWEST COLORADO...

CITY           SKY/WX    TMP DP  RH WIND       PRES   REMARKS
DURANGO        FAIR      28   2  32 W8        29.76R WCI  20
CORTEZ         FAIR      29   9  43 SW3       29.78R
PAGOSA SPRINGS FAIR      25  -1  33 W3        29.76R
TELLURIDE      FLURRIES  16  10  79 CALM      29.75S
WOLF CREEK PAS FAIR       3  -6  66 SW18G33   29.69R WCI -17
$$

COZ009-010-012-014-032>034-037-058>063-240300-
...CENTRAL COLORADO...

CITY           SKY/WX    TMP DP  RH WIND       PRES   REMARKS
ASPEN          CLOUDY    19  10  68 S5        29.70R WCI  12
BUENA VISTA    FAIR      21   5  50 W6        29.69R WCI  14
COPPER MTN     LGT SNOW   5   0  78 MISG      29.58R
BERTHOUD PASS  CLOUDY    -2 -13  60 NW22      29.54R HAZE    WCI -26
COTTONWOOD PAS MOCLDY    18   1  49 W5        29.65R WCI  11
GUNNISON       MOCLDY    21  11  65 N5        29.73R WCI  15
KREMMLING      MOCLDY    23  14  68 E5        29.70R WCI  17
LEADVILLE      MOCLDY     6   1  80 N3        29.62S
MONARCH PASS   LGT SNOW   3   0  85 W23G33    29.69R WCI -19
SALIDA         FAIR      26   3  37 W10G20    29.78R WCI  16
SUNLIGHT       NOT AVBL
WILKERSON PASS MOCLDY     9  -6  52 W9        29.62R WCI  -5
$$

COZ069>075-240300-
...SAN LUIS VALLEY/SANGRE DE CRISTO MOUNTAINS...

CITY           SKY/WX    TMP DP  RH WIND       PRES   REMARKS
ALAMOSA        FAIR      26   6  42 W14       29.71R WCI  14
LA VETA PASS   FAIR      16   3  57 SW18G35   29.63R WCI  -1
SAGUACHE       FAIR      21  12  68 NW9       29.72R WCI  11
$$

COZ035-036-038>040-240300-
...NORTHERN COLORADO FRONT RANGE...

CITY           SKY/WX    TMP DP  RH WIND       PRES   REMARKS
DENVER INTL AP CLOUDY    19  14  81 N15G24    29.80R WCI   5
DMNS CITY PARK   N/A     21  15  79 N12       29.83R WCI   9
AURORA         FLURRIES  19  18  93 N17G24    29.80R WCI   4
FRONT RANGE AP NOT AVBL
ERIE MUNI ARPT FLURRIES  21  15  77 N13G20    29.84R WCI   9
BOULDER MUN AP FLURRIES  21  18  86 NE14      29.82R WCI   8
CENTENNIAL     LGT SNOW  20  16  84 N17       29.78R FOG     WCI   5
BROOMFIELD     LGT SNOW  21  18  86 N15       29.81R WCI   8
FORT COLLINS   CLOUDY    21  15  78 N13       29.84R WCI   9
LONGMONT       FLURRIES  24  17  73 NE7       29.86R WCI  16
$$

COZ041-046-047-076>085-087-088-240300-
...PIKES PEAK/PALMER DIVIDE AND SOUTHERN FOOTHILLS...

CITY           SKY/WX    TMP DP  RH WIND       PRES   REMARKS
COLO. SPRINGS  FAIR      25  14  63 N30G37    29.67R WCI   8
A. F. ACADEMY  CLOUDY    21  15  78 N16       29.70R WCI   7
SCHRIEVER AFB  FAIR      22  15  74 N21G29    29.68R WCI   7
ELLICOTT       FAIR     N/A N/A N/A NE14G23   29.69R
FALCON         FAIR      20  15  79 N20G26    29.68R WCI   4
FORT CARSON    FAIR      25  14  61 N15       29.70R WCI  13
LIMON          CLOUDY    20  19  96 N21       29.73S WCI   4
MONUMENT HILL  LGT SNOW  18  14  86 N12G17    29.73R WCI   5
TRINIDAD       FAIR      38  -3  17 W18       29.68R
$$

COZ042>045-048>051-090-091-240300-
...NORTHEAST COLORADO...

CITY           SKY/WX    TMP DP  RH WIND       PRES   REMARKS
GREELEY ARPT   FAIR      21  17  84 N13       29.85R WCI   9
AKRON          FLURRIES  20  17  88 N16       29.76R WCI   6
BURLINGTON     CLOUDY    25  21  85 N20G26    29.73R WCI  11
WRAY           NOT AVBL
STERLING       NOT AVBL
HOLYOKE        LGT SNOW  27  23  86 N12       29.78R WCI  16
FORT MORGAN    FAIR      20  17  87 N15       29.81R WCI   7
$$

COZ086-089-092>099-240300-
...SOUTHEAST COLORADO...

CITY           SKY/WX    TMP DP  RH WIND       PRES   REMARKS
PUEBLO         CLOUDY    36  22  56 N25G31    29.70R
LA JUNTA       FAIR      34  25  69 N18       29.70R WCI  23
LAMAR          CLOUDY    33  25  72 N25G32    29.67R WCI  20
SPRINGFIELD      N/A     34  30  85 N16G24    29.64R WCI  24
$$




USA.gov is the U.S. government's official web portal to all federal, state and local government web resources and services.